Old browser warning

Site look funky?  Your browser is either Internet Explorer (hit refresh (F5) several times due to a bug in Microsoft's code that we can't work around) or is 10 years old and standards-based layouts and styling confuse it.   Consider updating.  One excellent option is Mozilla Firefox, versions of which are available for Linux, Mac and Windows. Safari 1.0+ and IE 6.0+ are also supported.

Pit At Big Bend [ USA-CAL ]

Edit Gauge

Current Conditions

Reading of "n/a" = frozen gauge or gauge error.
Reading Trend Type Updated
too low 0.0 r.c./hr Status 02h59m
418 cfs 0 cfs/hr Flow 02h59m

Station Description

AW Gauge ID: 45208
Source: dream
Station: 046
Enabled yes
AW thanks Chris Shackleton and Dreamflows for this data. Dreamflows data should only be analyzed in the context of the Dreamflows site. Data is often calculated and/or approximated. Please see Chris's site for a complete description of how this data should and can be interpreted. Source Gauge's Page

Information

Flow

Gauge History

Times listed in GMT 24h, ET and PT hours provided for convenience Graphs in GMT. Readings of "n/a" constitute a frozen gauge or gauge error.
Reading Updated (GMT) Eastern Pacific Comment
418.00 10/21/2018 17:59:28 Oct 21 01:59 pm Oct 21 10:59 am
418.00 10/21/2018 16:59:44 Oct 21 12:59 pm Oct 21 9:59 am
418.00 10/21/2018 16:00:00 Oct 21 12:00 pm Oct 21 9:00 am
416.00 10/21/2018 14:58:08 Oct 21 10:58 am Oct 21 7:58 am
415.00 10/21/2018 13:58:24 Oct 21 09:58 am Oct 21 6:58 am
410.00 10/21/2018 12:58:40 Oct 21 08:58 am Oct 21 5:58 am
407.00 10/21/2018 11:58:56 Oct 21 07:58 am Oct 21 4:58 am
411.00 10/21/2018 10:59:12 Oct 21 06:59 am Oct 21 3:59 am
411.00 10/21/2018 09:59:28 Oct 21 05:59 am Oct 21 2:59 am
411.00 10/21/2018 08:59:44 Oct 21 04:59 am Oct 21 1:59 am
411.00 10/21/2018 08:00:00 Oct 21 04:00 am Oct 21 1:00 am
411.00 10/21/2018 06:58:08 Oct 21 02:58 am Oct 20 11:58 pm
413.00 10/21/2018 02:59:12 Oct 20 10:59 pm Oct 20 7:59 pm
415.00 10/21/2018 01:59:28 Oct 20 09:59 pm Oct 20 6:59 pm
415.00 10/21/2018 00:59:44 Oct 20 08:59 pm Oct 20 5:59 pm
418.00 10/21/2018 00:00:00 Oct 20 08:00 pm Oct 20 5:00 pm
416.00 10/20/2018 22:58:08 Oct 20 06:58 pm Oct 20 3:58 pm
418.00 10/20/2018 21:58:24 Oct 20 05:58 pm Oct 20 2:58 pm
418.00 10/20/2018 20:58:40 Oct 20 04:58 pm Oct 20 1:58 pm
418.00 10/20/2018 19:58:56 Oct 20 03:58 pm Oct 20 12:58 pm
420.00 10/20/2018 18:59:12 Oct 20 02:59 pm Oct 20 11:59 am
418.00 10/20/2018 16:59:44 Oct 20 12:59 pm Oct 20 9:59 am
412.00 10/20/2018 14:58:08 Oct 20 10:58 am Oct 20 7:58 am
411.00 10/20/2018 13:58:24 Oct 20 09:58 am Oct 20 6:58 am
415.00 10/20/2018 11:58:56 Oct 20 07:58 am Oct 20 4:58 am
412.00 10/20/2018 09:59:28 Oct 20 05:59 am Oct 20 2:59 am
411.00 10/20/2018 08:59:44 Oct 20 04:59 am Oct 20 1:59 am
411.00 10/20/2018 06:58:08 Oct 20 02:58 am Oct 19 11:58 pm
418.00 10/20/2018 02:59:12 Oct 19 10:59 pm Oct 19 7:59 pm
415.00 10/20/2018 00:59:44 Oct 19 08:59 pm Oct 19 5:59 pm
418.00 10/20/2018 00:00:00 Oct 19 08:00 pm Oct 19 5:00 pm
417.00 10/19/2018 21:58:24 Oct 19 05:58 pm Oct 19 2:58 pm
416.00 10/19/2018 20:58:40 Oct 19 04:58 pm Oct 19 1:58 pm
415.00 10/19/2018 18:59:12 Oct 19 02:59 pm Oct 19 11:59 am
415.00 10/19/2018 17:59:28 Oct 19 01:59 pm Oct 19 10:59 am
418.00 10/19/2018 16:00:00 Oct 19 12:00 pm Oct 19 9:00 am
418.00 10/19/2018 13:58:24 Oct 19 09:58 am Oct 19 6:58 am
418.00 10/19/2018 11:58:56 Oct 19 07:58 am Oct 19 4:58 am
418.00 10/19/2018 09:59:28 Oct 19 05:59 am Oct 19 2:59 am
420.00 10/19/2018 06:58:08 Oct 19 02:58 am Oct 18 11:58 pm
422.00 10/19/2018 02:59:12 Oct 18 10:59 pm Oct 18 7:59 pm
420.00 10/19/2018 01:59:28 Oct 18 09:59 pm Oct 18 6:59 pm
422.00 10/19/2018 00:00:00 Oct 18 08:00 pm Oct 18 5:00 pm
422.00 10/18/2018 21:58:24 Oct 18 05:58 pm Oct 18 2:58 pm
418.00 10/18/2018 19:58:56 Oct 18 03:58 pm Oct 18 12:58 pm
420.00 10/18/2018 18:59:12 Oct 18 02:59 pm Oct 18 11:59 am
415.00 10/18/2018 17:59:28 Oct 18 01:59 pm Oct 18 10:59 am
412.00 10/18/2018 14:58:08 Oct 18 10:58 am Oct 18 7:58 am
411.00 10/18/2018 12:58:40 Oct 18 08:58 am Oct 18 5:58 am
413.00 10/18/2018 10:59:12 Oct 18 06:59 am Oct 18 3:59 am
415.00 10/18/2018 08:59:44 Oct 18 04:59 am Oct 18 1:59 am
415.00 10/18/2018 01:59:28 Oct 17 09:59 pm Oct 17 6:59 pm
415.00 10/18/2018 00:00:00 Oct 17 08:00 pm Oct 17 5:00 pm
415.00 10/17/2018 21:58:24 Oct 17 05:58 pm Oct 17 2:58 pm
415.00 10/17/2018 19:58:56 Oct 17 03:58 pm Oct 17 12:58 pm
410.00 10/17/2018 18:59:12 Oct 17 02:59 pm Oct 17 11:59 am
415.00 10/17/2018 17:59:28 Oct 17 01:59 pm Oct 17 10:59 am
414.00 10/17/2018 16:59:44 Oct 17 12:59 pm Oct 17 9:59 am
411.00 10/17/2018 14:58:08 Oct 17 10:58 am Oct 17 7:58 am
411.00 10/17/2018 13:58:24 Oct 17 09:58 am Oct 17 6:58 am
411.00 10/17/2018 11:58:56 Oct 17 07:58 am Oct 17 4:58 am
411.00 10/17/2018 10:59:12 Oct 17 06:59 am Oct 17 3:59 am
411.00 10/17/2018 08:59:44 Oct 17 04:59 am Oct 17 1:59 am
411.00 10/17/2018 08:00:00 Oct 17 04:00 am Oct 17 1:00 am
415.00 10/17/2018 02:59:12 Oct 16 10:59 pm Oct 16 7:59 pm
415.00 10/17/2018 01:59:28 Oct 16 09:59 pm Oct 16 6:59 pm
415.00 10/17/2018 00:00:00 Oct 16 08:00 pm Oct 16 5:00 pm
413.00 10/16/2018 22:58:08 Oct 16 06:58 pm Oct 16 3:58 pm
411.00 10/16/2018 20:58:40 Oct 16 04:58 pm Oct 16 1:58 pm
411.00 10/16/2018 19:58:56 Oct 16 03:58 pm Oct 16 12:58 pm
410.00 10/16/2018 18:59:12 Oct 16 02:59 pm Oct 16 11:59 am
411.00 10/16/2018 17:59:28 Oct 16 01:59 pm Oct 16 10:59 am
411.00 10/16/2018 16:00:00 Oct 16 12:00 pm Oct 16 9:00 am
411.00 10/16/2018 14:58:08 Oct 16 10:58 am Oct 16 7:58 am
411.00 10/16/2018 12:58:40 Oct 16 08:58 am Oct 16 5:58 am
411.00 10/16/2018 10:59:12 Oct 16 06:59 am Oct 16 3:59 am
411.00 10/16/2018 08:59:44 Oct 16 04:59 am Oct 16 1:59 am
411.00 10/16/2018 06:58:08 Oct 16 02:58 am Oct 15 11:58 pm
411.00 10/16/2018 02:59:12 Oct 15 10:59 pm Oct 15 7:59 pm
411.00 10/16/2018 01:59:28 Oct 15 09:59 pm Oct 15 6:59 pm
412.00 10/16/2018 00:59:44 Oct 15 08:59 pm Oct 15 5:59 pm
412.00 10/15/2018 22:58:08 Oct 15 06:58 pm Oct 15 3:58 pm
411.00 10/15/2018 21:58:24 Oct 15 05:58 pm Oct 15 2:58 pm
411.00 10/15/2018 19:58:56 Oct 15 03:58 pm Oct 15 12:58 pm
410.00 10/15/2018 18:59:12 Oct 15 02:59 pm Oct 15 11:59 am
411.00 10/15/2018 17:59:28 Oct 15 01:59 pm Oct 15 10:59 am
411.00 10/15/2018 16:59:44 Oct 15 12:59 pm Oct 15 9:59 am
417.00 10/15/2018 14:58:08 Oct 15 10:58 am Oct 15 7:58 am
426.00 10/15/2018 12:58:40 Oct 15 08:58 am Oct 15 5:58 am
426.00 10/15/2018 11:58:56 Oct 15 07:58 am Oct 15 4:58 am
429.00 10/15/2018 09:59:28 Oct 15 05:59 am Oct 15 2:59 am
427.00 10/15/2018 08:59:44 Oct 15 04:59 am Oct 15 1:59 am
430.00 10/15/2018 06:58:08 Oct 15 02:58 am Oct 14 11:58 pm
434.00 10/15/2018 02:59:12 Oct 14 10:59 pm Oct 14 7:59 pm
431.00 10/15/2018 01:59:28 Oct 14 09:59 pm Oct 14 6:59 pm
430.00 10/15/2018 00:59:44 Oct 14 08:59 pm Oct 14 5:59 pm
433.00 10/15/2018 00:00:00 Oct 14 08:00 pm Oct 14 5:00 pm
432.00 10/14/2018 22:58:08 Oct 14 06:58 pm Oct 14 3:58 pm
430.00 10/14/2018 21:58:24 Oct 14 05:58 pm Oct 14 2:58 pm
437.00 10/14/2018 19:58:56 Oct 14 03:58 pm Oct 14 12:58 pm
437.00 10/14/2018 18:59:12 Oct 14 02:59 pm Oct 14 11:59 am
443.00 10/14/2018 16:59:44 Oct 14 12:59 pm Oct 14 9:59 am
445.00 10/14/2018 16:00:00 Oct 14 12:00 pm Oct 14 9:00 am
466.00 10/14/2018 13:58:24 Oct 14 09:58 am Oct 14 6:58 am
466.00 10/14/2018 12:58:40 Oct 14 08:58 am Oct 14 5:58 am
459.00 10/14/2018 10:59:12 Oct 14 06:59 am Oct 14 3:59 am
461.00 10/14/2018 09:59:28 Oct 14 05:59 am Oct 14 2:59 am
553.00 10/14/2018 08:00:00 Oct 14 04:00 am Oct 14 1:00 am
646.00 10/14/2018 06:58:08 Oct 14 02:58 am Oct 13 11:58 pm
958.00 10/14/2018 02:59:12 Oct 13 10:59 pm Oct 13 7:59 pm
956.00 10/14/2018 01:59:28 Oct 13 09:59 pm Oct 13 6:59 pm
968.00 10/14/2018 00:00:00 Oct 13 08:00 pm Oct 13 5:00 pm
967.00 10/13/2018 22:58:08 Oct 13 06:58 pm Oct 13 3:58 pm
972.00 10/13/2018 20:58:40 Oct 13 04:58 pm Oct 13 1:58 pm
971.00 10/13/2018 19:58:56 Oct 13 03:58 pm Oct 13 12:58 pm
975.00 10/13/2018 18:59:12 Oct 13 02:59 pm Oct 13 11:59 am
971.00 10/13/2018 17:59:28 Oct 13 01:59 pm Oct 13 10:59 am
979.00 10/13/2018 16:59:44 Oct 13 12:59 pm Oct 13 9:59 am
1033.00 10/13/2018 14:58:08 Oct 13 10:58 am Oct 13 7:58 am
1154.00 10/13/2018 12:58:40 Oct 13 08:58 am Oct 13 5:58 am
1167.00 10/13/2018 11:58:56 Oct 13 07:58 am Oct 13 4:58 am
1169.00 10/13/2018 09:59:28 Oct 13 05:59 am Oct 13 2:59 am
1167.00 10/13/2018 08:59:44 Oct 13 04:59 am Oct 13 1:59 am
1177.00 10/13/2018 08:00:00 Oct 13 04:00 am Oct 13 1:00 am
787.00 10/13/2018 02:59:12 Oct 12 10:59 pm Oct 12 7:59 pm
796.00 10/13/2018 01:59:28 Oct 12 09:59 pm Oct 12 6:59 pm
871.00 10/13/2018 00:59:44 Oct 12 08:59 pm Oct 12 5:59 pm
868.00 10/13/2018 00:00:00 Oct 12 08:00 pm Oct 12 5:00 pm
968.00 10/12/2018 22:58:08 Oct 12 06:58 pm Oct 12 3:58 pm
1096.00 10/12/2018 21:58:24 Oct 12 05:58 pm Oct 12 2:58 pm
1076.00 10/12/2018 20:58:40 Oct 12 04:58 pm Oct 12 1:58 pm
1073.00 10/12/2018 18:59:12 Oct 12 02:59 pm Oct 12 11:59 am
1095.00 10/12/2018 17:59:28 Oct 12 01:59 pm Oct 12 10:59 am
1087.00 10/12/2018 16:59:44 Oct 12 12:59 pm Oct 12 9:59 am
1141.00 10/12/2018 14:58:08 Oct 12 10:58 am Oct 12 7:58 am
1189.00 10/12/2018 12:58:40 Oct 12 08:58 am Oct 12 5:58 am
1181.00 10/12/2018 11:58:56 Oct 12 07:58 am Oct 12 4:58 am
1200.00 10/12/2018 09:59:28 Oct 12 05:59 am Oct 12 2:59 am
1407.00 10/12/2018 08:00:00 Oct 12 04:00 am Oct 12 1:00 am
1605.00 10/12/2018 06:58:08 Oct 12 02:58 am Oct 11 11:58 pm
1980.00 10/12/2018 02:59:12 Oct 11 10:59 pm Oct 11 7:59 pm
1923.00 10/12/2018 01:59:28 Oct 11 09:59 pm Oct 11 6:59 pm
1481.00 10/12/2018 00:00:00 Oct 11 08:00 pm Oct 11 5:00 pm
1255.00 10/11/2018 22:58:08 Oct 11 06:58 pm Oct 11 3:58 pm
1211.00 10/11/2018 21:58:24 Oct 11 05:58 pm Oct 11 2:58 pm
1214.00 10/11/2018 20:58:40 Oct 11 04:58 pm Oct 11 1:58 pm
1209.00 10/11/2018 19:58:56 Oct 11 03:58 pm Oct 11 12:58 pm
1209.00 10/11/2018 18:59:12 Oct 11 02:59 pm Oct 11 11:59 am
1207.00 10/11/2018 17:59:28 Oct 11 01:59 pm Oct 11 10:59 am
1214.00 10/11/2018 16:59:44 Oct 11 12:59 pm Oct 11 9:59 am
1213.00 10/11/2018 16:00:00 Oct 11 12:00 pm Oct 11 9:00 am
1244.00 10/11/2018 14:58:08 Oct 11 10:58 am Oct 11 7:58 am
1303.00 10/11/2018 13:58:24 Oct 11 09:58 am Oct 11 6:58 am
1312.00 10/11/2018 12:58:40 Oct 11 08:58 am Oct 11 5:58 am
610.00 10/11/2018 01:59:28 Oct 10 09:59 pm Oct 10 6:59 pm
440.00 10/11/2018 00:59:44 Oct 10 08:59 pm Oct 10 5:59 pm
418.00 10/11/2018 00:00:00 Oct 10 08:00 pm Oct 10 5:00 pm
418.00 10/10/2018 21:58:24 Oct 10 05:58 pm Oct 10 2:58 pm
418.00 10/10/2018 20:58:40 Oct 10 04:58 pm Oct 10 1:58 pm
416.00 10/10/2018 19:58:56 Oct 10 03:58 pm Oct 10 12:58 pm
410.00 10/10/2018 18:59:12 Oct 10 02:59 pm Oct 10 11:59 am
418.00 10/10/2018 17:59:28 Oct 10 01:59 pm Oct 10 10:59 am
418.00 10/10/2018 16:59:44 Oct 10 12:59 pm Oct 10 9:59 am
415.00 10/10/2018 16:00:00 Oct 10 12:00 pm Oct 10 9:00 am
415.00 10/10/2018 14:58:08 Oct 10 10:58 am Oct 10 7:58 am
417.00 10/10/2018 13:58:24 Oct 10 09:58 am Oct 10 6:58 am
418.00 10/10/2018 12:58:40 Oct 10 08:58 am Oct 10 5:58 am
418.00 10/10/2018 11:58:56 Oct 10 07:58 am Oct 10 4:58 am
418.00 10/10/2018 10:59:12 Oct 10 06:59 am Oct 10 3:59 am
418.00 10/10/2018 09:59:28 Oct 10 05:59 am Oct 10 2:59 am
418.00 10/10/2018 08:59:44 Oct 10 04:59 am Oct 10 1:59 am
418.00 10/10/2018 08:00:00 Oct 10 04:00 am Oct 10 1:00 am
416.00 10/10/2018 06:58:08 Oct 10 02:58 am Oct 9 11:58 pm
418.00 10/10/2018 01:59:28 Oct 9 09:59 pm Oct 9 6:59 pm
418.00 10/10/2018 00:59:44 Oct 9 08:59 pm Oct 9 5:59 pm
418.00 10/10/2018 00:00:00 Oct 9 08:00 pm Oct 9 5:00 pm
418.00 10/09/2018 22:58:08 Oct 9 06:58 pm Oct 9 3:58 pm
418.00 10/09/2018 21:58:24 Oct 9 05:58 pm Oct 9 2:58 pm
418.00 10/09/2018 20:58:40 Oct 9 04:58 pm Oct 9 1:58 pm
418.00 10/09/2018 19:58:56 Oct 9 03:58 pm Oct 9 12:58 pm
418.00 10/09/2018 18:59:12 Oct 9 02:59 pm Oct 9 11:59 am
418.00 10/09/2018 17:59:28 Oct 9 01:59 pm Oct 9 10:59 am
418.00 10/09/2018 16:59:44 Oct 9 12:59 pm Oct 9 9:59 am
418.00 10/09/2018 16:00:00 Oct 9 12:00 pm Oct 9 9:00 am
418.00 10/09/2018 14:58:08 Oct 9 10:58 am Oct 9 7:58 am
418.00 10/09/2018 13:58:24 Oct 9 09:58 am Oct 9 6:58 am
418.00 10/09/2018 12:58:40 Oct 9 08:58 am Oct 9 5:58 am
419.00 10/09/2018 11:58:56 Oct 9 07:58 am Oct 9 4:58 am
422.00 10/09/2018 10:59:12 Oct 9 06:59 am Oct 9 3:59 am
422.00 10/09/2018 09:59:28 Oct 9 05:59 am Oct 9 2:59 am
421.00 10/09/2018 08:59:44 Oct 9 04:59 am Oct 9 1:59 am
418.00 10/09/2018 08:00:00 Oct 9 04:00 am Oct 9 1:00 am
418.00 10/09/2018 06:58:08 Oct 9 02:58 am Oct 8 11:58 pm
418.00 10/09/2018 02:59:12 Oct 8 10:59 pm Oct 8 7:59 pm
418.00 10/09/2018 01:59:28 Oct 8 09:59 pm Oct 8 6:59 pm
418.00 10/09/2018 00:59:44 Oct 8 08:59 pm Oct 8 5:59 pm
418.00 10/09/2018 00:00:00 Oct 8 08:00 pm Oct 8 5:00 pm
420.00 10/08/2018 22:58:08 Oct 8 06:58 pm Oct 8 3:58 pm
418.00 10/08/2018 21:58:24 Oct 8 05:58 pm Oct 8 2:58 pm
418.00 10/08/2018 20:58:40 Oct 8 04:58 pm Oct 8 1:58 pm
418.00 10/08/2018 19:58:56 Oct 8 03:58 pm Oct 8 12:58 pm
418.00 10/08/2018 18:59:12 Oct 8 02:59 pm Oct 8 11:59 am
418.00 10/08/2018 17:59:28 Oct 8 01:59 pm Oct 8 10:59 am
418.00 10/08/2018 16:00:00 Oct 8 12:00 pm Oct 8 9:00 am
417.00 10/08/2018 13:58:24 Oct 8 09:58 am Oct 8 6:58 am
418.00 10/08/2018 12:58:40 Oct 8 08:58 am Oct 8 5:58 am
418.00 10/08/2018 11:58:56 Oct 8 07:58 am Oct 8 4:58 am
418.00 10/08/2018 09:59:28 Oct 8 05:59 am Oct 8 2:59 am
418.00 10/08/2018 08:59:44 Oct 8 04:59 am Oct 8 1:59 am
418.00 10/08/2018 08:00:00 Oct 8 04:00 am Oct 8 1:00 am
415.00 10/08/2018 06:58:08 Oct 8 02:58 am Oct 7 11:58 pm
418.00 10/08/2018 02:59:12 Oct 7 10:59 pm Oct 7 7:59 pm
418.00 10/08/2018 01:59:28 Oct 7 09:59 pm Oct 7 6:59 pm
418.00 10/08/2018 00:59:44 Oct 7 08:59 pm Oct 7 5:59 pm
418.00 10/08/2018 00:00:00 Oct 7 08:00 pm Oct 7 5:00 pm
417.00 10/07/2018 22:58:08 Oct 7 06:58 pm Oct 7 3:58 pm
415.00 10/07/2018 21:58:24 Oct 7 05:58 pm Oct 7 2:58 pm
415.00 10/07/2018 20:58:40 Oct 7 04:58 pm Oct 7 1:58 pm
415.00 10/07/2018 19:58:56 Oct 7 03:58 pm Oct 7 12:58 pm
415.00 10/07/2018 18:59:12 Oct 7 02:59 pm Oct 7 11:59 am
415.00 10/07/2018 17:59:28 Oct 7 01:59 pm Oct 7 10:59 am
415.00 10/07/2018 16:59:44 Oct 7 12:59 pm Oct 7 9:59 am
415.00 10/07/2018 16:00:00 Oct 7 12:00 pm Oct 7 9:00 am
415.00 10/07/2018 14:58:08 Oct 7 10:58 am Oct 7 7:58 am
415.00 10/07/2018 13:58:24 Oct 7 09:58 am Oct 7 6:58 am
415.00 10/07/2018 12:58:40 Oct 7 08:58 am Oct 7 5:58 am
415.00 10/07/2018 11:58:56 Oct 7 07:58 am Oct 7 4:58 am
415.00 10/07/2018 10:59:12 Oct 7 06:59 am Oct 7 3:59 am
415.00 10/07/2018 09:59:28 Oct 7 05:59 am Oct 7 2:59 am
415.00 10/07/2018 08:00:00 Oct 7 04:00 am Oct 7 1:00 am
415.00 10/07/2018 06:58:08 Oct 7 02:58 am Oct 6 11:58 pm
412.00 10/07/2018 02:59:12 Oct 6 10:59 pm Oct 6 7:59 pm
412.00 10/07/2018 01:59:28 Oct 6 09:59 pm Oct 6 6:59 pm
414.00 10/07/2018 00:59:44 Oct 6 08:59 pm Oct 6 5:59 pm
415.00 10/07/2018 00:00:00 Oct 6 08:00 pm Oct 6 5:00 pm
415.00 10/06/2018 22:58:08 Oct 6 06:58 pm Oct 6 3:58 pm
417.00 10/06/2018 21:58:24 Oct 6 05:58 pm Oct 6 2:58 pm
418.00 10/06/2018 20:58:40 Oct 6 04:58 pm Oct 6 1:58 pm
418.00 10/06/2018 19:58:56 Oct 6 03:58 pm Oct 6 12:58 pm
418.00 10/06/2018 18:59:12 Oct 6 02:59 pm Oct 6 11:59 am
418.00 10/06/2018 17:59:28 Oct 6 01:59 pm Oct 6 10:59 am
415.00 10/06/2018 16:59:44 Oct 6 12:59 pm Oct 6 9:59 am
415.00 10/06/2018 16:00:00 Oct 6 12:00 pm Oct 6 9:00 am
415.00 10/06/2018 14:58:08 Oct 6 10:58 am Oct 6 7:58 am
418.00 10/06/2018 13:58:24 Oct 6 09:58 am Oct 6 6:58 am
418.00 10/06/2018 12:58:40 Oct 6 08:58 am Oct 6 5:58 am
418.00 10/06/2018 11:58:56 Oct 6 07:58 am Oct 6 4:58 am
418.00 10/06/2018 10:59:12 Oct 6 06:59 am Oct 6 3:59 am
418.00 10/06/2018 09:59:28 Oct 6 05:59 am Oct 6 2:59 am
418.00 10/06/2018 08:59:44 Oct 6 04:59 am Oct 6 1:59 am
418.00 10/06/2018 08:00:00 Oct 6 04:00 am Oct 6 1:00 am
418.00 10/06/2018 06:58:08 Oct 6 02:58 am Oct 5 11:58 pm
418.00 10/06/2018 02:59:12 Oct 5 10:59 pm Oct 5 7:59 pm
418.00 10/06/2018 00:00:00 Oct 5 08:00 pm Oct 5 5:00 pm
418.00 10/05/2018 22:58:08 Oct 5 06:58 pm Oct 5 3:58 pm
418.00 10/05/2018 21:58:24 Oct 5 05:58 pm Oct 5 2:58 pm
418.00 10/05/2018 20:58:40 Oct 5 04:58 pm Oct 5 1:58 pm
418.00 10/05/2018 19:58:56 Oct 5 03:58 pm Oct 5 12:58 pm
419.00 10/05/2018 18:59:12 Oct 5 02:59 pm Oct 5 11:59 am
419.00 10/05/2018 17:59:28 Oct 5 01:59 pm Oct 5 10:59 am
418.00 10/05/2018 16:59:44 Oct 5 12:59 pm Oct 5 9:59 am
418.00 10/05/2018 16:00:00 Oct 5 12:00 pm Oct 5 9:00 am
418.00 10/05/2018 14:58:08 Oct 5 10:58 am Oct 5 7:58 am
418.00 10/05/2018 13:58:24 Oct 5 09:58 am Oct 5 6:58 am
418.00 10/05/2018 12:58:40 Oct 5 08:58 am Oct 5 5:58 am
418.00 10/05/2018 11:58:56 Oct 5 07:58 am Oct 5 4:58 am
418.00 10/05/2018 10:59:12 Oct 5 06:59 am Oct 5 3:59 am
418.00 10/05/2018 09:59:28 Oct 5 05:59 am Oct 5 2:59 am
418.00 10/05/2018 08:59:44 Oct 5 04:59 am Oct 5 1:59 am
418.00 10/05/2018 08:00:00 Oct 5 04:00 am Oct 5 1:00 am
419.00 10/05/2018 06:58:08 Oct 5 02:58 am Oct 4 11:58 pm
426.00 10/05/2018 02:59:12 Oct 4 10:59 pm Oct 4 7:59 pm
426.00 10/05/2018 01:59:28 Oct 4 09:59 pm Oct 4 6:59 pm
426.00 10/05/2018 00:59:44 Oct 4 08:59 pm Oct 4 5:59 pm
430.00 10/05/2018 00:00:00 Oct 4 08:00 pm Oct 4 5:00 pm
436.00 10/04/2018 22:58:08 Oct 4 06:58 pm Oct 4 3:58 pm
437.00 10/04/2018 21:58:24 Oct 4 05:58 pm Oct 4 2:58 pm
441.00 10/04/2018 20:58:40 Oct 4 04:58 pm Oct 4 1:58 pm
444.00 10/04/2018 19:58:56 Oct 4 03:58 pm Oct 4 12:58 pm
447.00 10/04/2018 18:59:12 Oct 4 02:59 pm Oct 4 11:59 am
453.00 10/04/2018 17:59:28 Oct 4 01:59 pm Oct 4 10:59 am
440.00 10/04/2018 16:59:44 Oct 4 12:59 pm Oct 4 9:59 am
443.00 10/04/2018 16:00:00 Oct 4 12:00 pm Oct 4 9:00 am
464.00 10/04/2018 14:58:08 Oct 4 10:58 am Oct 4 7:58 am
466.00 10/04/2018 13:58:24 Oct 4 09:58 am Oct 4 6:58 am
418.00 10/03/2018 19:58:56 Oct 3 03:58 pm Oct 3 12:58 pm
418.00 10/03/2018 18:59:12 Oct 3 02:59 pm Oct 3 11:59 am
415.00 10/03/2018 17:59:28 Oct 3 01:59 pm Oct 3 10:59 am
417.00 10/03/2018 16:59:44 Oct 3 12:59 pm Oct 3 9:59 am
418.00 10/03/2018 16:00:00 Oct 3 12:00 pm Oct 3 9:00 am
418.00 10/02/2018 19:58:56 Oct 2 03:58 pm Oct 2 12:58 pm
418.00 10/02/2018 18:59:12 Oct 2 02:59 pm Oct 2 11:59 am
418.00 10/02/2018 17:59:28 Oct 2 01:59 pm Oct 2 10:59 am
418.00 10/02/2018 16:59:44 Oct 2 12:59 pm Oct 2 9:59 am
418.00 10/02/2018 16:00:00 Oct 2 12:00 pm Oct 2 9:00 am
418.00 10/02/2018 14:58:08 Oct 2 10:58 am Oct 2 7:58 am
418.00 10/02/2018 13:58:24 Oct 2 09:58 am Oct 2 6:58 am
418.00 10/02/2018 12:58:40 Oct 2 08:58 am Oct 2 5:58 am
418.00 10/02/2018 11:58:56 Oct 2 07:58 am Oct 2 4:58 am
418.00 10/02/2018 10:59:12 Oct 2 06:59 am Oct 2 3:59 am

Status

Gauge History

Times listed in GMT 24h, ET and PT hours provided for convenience Graphs in GMT. Readings of "n/a" constitute a frozen gauge or gauge error.
Reading Updated (GMT) Eastern Pacific Comment
too low 10/21/2018 17:59:28 Oct 21 01:59 pm Oct 21 10:59 am
too low 10/21/2018 16:59:44 Oct 21 12:59 pm Oct 21 9:59 am
too low 10/21/2018 16:00:00 Oct 21 12:00 pm Oct 21 9:00 am
too low 10/21/2018 14:58:08 Oct 21 10:58 am Oct 21 7:58 am
too low 10/21/2018 13:58:24 Oct 21 09:58 am Oct 21 6:58 am
too low 10/21/2018 12:58:40 Oct 21 08:58 am Oct 21 5:58 am
too low 10/21/2018 11:58:56 Oct 21 07:58 am Oct 21 4:58 am
too low 10/21/2018 10:59:12 Oct 21 06:59 am Oct 21 3:59 am
too low 10/21/2018 09:59:28 Oct 21 05:59 am Oct 21 2:59 am
too low 10/21/2018 08:59:44 Oct 21 04:59 am Oct 21 1:59 am
too low 10/21/2018 08:00:00 Oct 21 04:00 am Oct 21 1:00 am
too low 10/21/2018 06:58:08 Oct 21 02:58 am Oct 20 11:58 pm
too low 10/21/2018 02:59:12 Oct 20 10:59 pm Oct 20 7:59 pm
too low 10/21/2018 01:59:28 Oct 20 09:59 pm Oct 20 6:59 pm
too low 10/21/2018 00:59:44 Oct 20 08:59 pm Oct 20 5:59 pm
too low 10/21/2018 00:00:00 Oct 20 08:00 pm Oct 20 5:00 pm
too low 10/20/2018 22:58:08 Oct 20 06:58 pm Oct 20 3:58 pm
too low 10/20/2018 21:58:24 Oct 20 05:58 pm Oct 20 2:58 pm
too low 10/20/2018 20:58:40 Oct 20 04:58 pm Oct 20 1:58 pm
too low 10/20/2018 19:58:56 Oct 20 03:58 pm Oct 20 12:58 pm
too low 10/20/2018 16:59:44 Oct 20 12:59 pm Oct 20 9:59 am
too low 10/20/2018 14:58:08 Oct 20 10:58 am Oct 20 7:58 am
too low 10/20/2018 13:58:24 Oct 20 09:58 am Oct 20 6:58 am
too low 10/20/2018 11:58:56 Oct 20 07:58 am Oct 20 4:58 am
too low 10/20/2018 09:59:28 Oct 20 05:59 am Oct 20 2:59 am
too low 10/20/2018 08:59:44 Oct 20 04:59 am Oct 20 1:59 am
too low 10/20/2018 06:58:08 Oct 20 02:58 am Oct 19 11:58 pm
too low 10/20/2018 00:59:44 Oct 19 08:59 pm Oct 19 5:59 pm
too low 10/20/2018 00:00:00 Oct 19 08:00 pm Oct 19 5:00 pm
too low 10/19/2018 21:58:24 Oct 19 05:58 pm Oct 19 2:58 pm
too low 10/19/2018 20:58:40 Oct 19 04:58 pm Oct 19 1:58 pm
too low 10/19/2018 18:59:12 Oct 19 02:59 pm Oct 19 11:59 am
too low 10/19/2018 17:59:28 Oct 19 01:59 pm Oct 19 10:59 am
too low 10/19/2018 16:00:00 Oct 19 12:00 pm Oct 19 9:00 am
too low 10/19/2018 13:58:24 Oct 19 09:58 am Oct 19 6:58 am
too low 10/19/2018 11:58:56 Oct 19 07:58 am Oct 19 4:58 am
too low 10/19/2018 09:59:28 Oct 19 05:59 am Oct 19 2:59 am
too low 10/19/2018 06:58:08 Oct 19 02:58 am Oct 18 11:58 pm
too low 10/19/2018 02:59:12 Oct 18 10:59 pm Oct 18 7:59 pm
too low 10/19/2018 01:59:28 Oct 18 09:59 pm Oct 18 6:59 pm
too low 10/19/2018 00:00:00 Oct 18 08:00 pm Oct 18 5:00 pm
too low 10/18/2018 21:58:24 Oct 18 05:58 pm Oct 18 2:58 pm
too low 10/18/2018 19:58:56 Oct 18 03:58 pm Oct 18 12:58 pm
too low 10/18/2018 17:59:28 Oct 18 01:59 pm Oct 18 10:59 am
too low 10/18/2018 14:58:08 Oct 18 10:58 am Oct 18 7:58 am
too low 10/18/2018 12:58:40 Oct 18 08:58 am Oct 18 5:58 am
too low 10/18/2018 10:59:12 Oct 18 06:59 am Oct 18 3:59 am
too low 10/18/2018 08:59:44 Oct 18 04:59 am Oct 18 1:59 am
too low 10/18/2018 01:59:28 Oct 17 09:59 pm Oct 17 6:59 pm
too low 10/18/2018 00:00:00 Oct 17 08:00 pm Oct 17 5:00 pm
too low 10/17/2018 21:58:24 Oct 17 05:58 pm Oct 17 2:58 pm
too low 10/17/2018 19:58:56 Oct 17 03:58 pm Oct 17 12:58 pm
too low 10/17/2018 18:59:12 Oct 17 02:59 pm Oct 17 11:59 am
too low 10/17/2018 17:59:28 Oct 17 01:59 pm Oct 17 10:59 am
too low 10/17/2018 16:59:44 Oct 17 12:59 pm Oct 17 9:59 am
too low 10/17/2018 14:58:08 Oct 17 10:58 am Oct 17 7:58 am
too low 10/17/2018 13:58:24 Oct 17 09:58 am Oct 17 6:58 am
too low 10/17/2018 11:58:56 Oct 17 07:58 am Oct 17 4:58 am
too low 10/17/2018 10:59:12 Oct 17 06:59 am Oct 17 3:59 am
too low 10/17/2018 08:59:44 Oct 17 04:59 am Oct 17 1:59 am
too low 10/17/2018 08:00:00 Oct 17 04:00 am Oct 17 1:00 am
too low 10/17/2018 02:59:12 Oct 16 10:59 pm Oct 16 7:59 pm
too low 10/17/2018 01:59:28 Oct 16 09:59 pm Oct 16 6:59 pm
too low 10/17/2018 00:00:00 Oct 16 08:00 pm Oct 16 5:00 pm
too low 10/16/2018 22:58:08 Oct 16 06:58 pm Oct 16 3:58 pm
too low 10/16/2018 20:58:40 Oct 16 04:58 pm Oct 16 1:58 pm
too low 10/16/2018 19:58:56 Oct 16 03:58 pm Oct 16 12:58 pm
too low 10/16/2018 17:59:28 Oct 16 01:59 pm Oct 16 10:59 am
too low 10/16/2018 16:00:00 Oct 16 12:00 pm Oct 16 9:00 am
too low 10/16/2018 14:58:08 Oct 16 10:58 am Oct 16 7:58 am
too low 10/16/2018 12:58:40 Oct 16 08:58 am Oct 16 5:58 am
too low 10/16/2018 10:59:12 Oct 16 06:59 am Oct 16 3:59 am
too low 10/16/2018 08:59:44 Oct 16 04:59 am Oct 16 1:59 am
too low 10/16/2018 06:58:08 Oct 16 02:58 am Oct 15 11:58 pm
too low 10/16/2018 02:59:12 Oct 15 10:59 pm Oct 15 7:59 pm
too low 10/16/2018 01:59:28 Oct 15 09:59 pm Oct 15 6:59 pm
too low 10/16/2018 00:59:44 Oct 15 08:59 pm Oct 15 5:59 pm
too low 10/15/2018 22:58:08 Oct 15 06:58 pm Oct 15 3:58 pm
too low 10/15/2018 21:58:24 Oct 15 05:58 pm Oct 15 2:58 pm
too low 10/15/2018 19:58:56 Oct 15 03:58 pm Oct 15 12:58 pm
too low 10/15/2018 17:59:28 Oct 15 01:59 pm Oct 15 10:59 am
too low 10/15/2018 16:59:44 Oct 15 12:59 pm Oct 15 9:59 am
too low 10/15/2018 14:58:08 Oct 15 10:58 am Oct 15 7:58 am
too low 10/15/2018 12:58:40 Oct 15 08:58 am Oct 15 5:58 am
too low 10/15/2018 11:58:56 Oct 15 07:58 am Oct 15 4:58 am
too low 10/15/2018 09:59:28 Oct 15 05:59 am Oct 15 2:59 am
too low 10/15/2018 08:59:44 Oct 15 04:59 am Oct 15 1:59 am
too low 10/15/2018 06:58:08 Oct 15 02:58 am Oct 14 11:58 pm
too low 10/15/2018 02:59:12 Oct 14 10:59 pm Oct 14 7:59 pm
too low 10/15/2018 01:59:28 Oct 14 09:59 pm Oct 14 6:59 pm
too low 10/15/2018 00:59:44 Oct 14 08:59 pm Oct 14 5:59 pm
too low 10/15/2018 00:00:00 Oct 14 08:00 pm Oct 14 5:00 pm
too low 10/14/2018 22:58:08 Oct 14 06:58 pm Oct 14 3:58 pm
too low 10/14/2018 21:58:24 Oct 14 05:58 pm Oct 14 2:58 pm
too low 10/14/2018 19:58:56 Oct 14 03:58 pm Oct 14 12:58 pm
too low 10/14/2018 18:59:12 Oct 14 02:59 pm Oct 14 11:59 am
too low 10/14/2018 16:59:44 Oct 14 12:59 pm Oct 14 9:59 am
too low 10/14/2018 16:00:00 Oct 14 12:00 pm Oct 14 9:00 am
too low 10/14/2018 13:58:24 Oct 14 09:58 am Oct 14 6:58 am
too low 10/14/2018 12:58:40 Oct 14 08:58 am Oct 14 5:58 am
too low 10/14/2018 10:59:12 Oct 14 06:59 am Oct 14 3:59 am
too low 10/14/2018 09:59:28 Oct 14 05:59 am Oct 14 2:59 am
too low 10/14/2018 08:00:00 Oct 14 04:00 am Oct 14 1:00 am
too low 10/14/2018 06:58:08 Oct 14 02:58 am Oct 13 11:58 pm
running 10/14/2018 02:59:12 Oct 13 10:59 pm Oct 13 7:59 pm
running 10/14/2018 01:59:28 Oct 13 09:59 pm Oct 13 6:59 pm
running 10/14/2018 00:00:00 Oct 13 08:00 pm Oct 13 5:00 pm
running 10/13/2018 22:58:08 Oct 13 06:58 pm Oct 13 3:58 pm
running 10/13/2018 20:58:40 Oct 13 04:58 pm Oct 13 1:58 pm
running 10/13/2018 19:58:56 Oct 13 03:58 pm Oct 13 12:58 pm
running 10/13/2018 17:59:28 Oct 13 01:59 pm Oct 13 10:59 am
running 10/13/2018 16:59:44 Oct 13 12:59 pm Oct 13 9:59 am
running 10/13/2018 14:58:08 Oct 13 10:58 am Oct 13 7:58 am
running 10/13/2018 12:58:40 Oct 13 08:58 am Oct 13 5:58 am
running 10/13/2018 11:58:56 Oct 13 07:58 am Oct 13 4:58 am
running 10/13/2018 09:59:28 Oct 13 05:59 am Oct 13 2:59 am
running 10/13/2018 08:59:44 Oct 13 04:59 am Oct 13 1:59 am
running 10/13/2018 08:00:00 Oct 13 04:00 am Oct 13 1:00 am
too low 10/13/2018 02:59:12 Oct 12 10:59 pm Oct 12 7:59 pm
too low 10/13/2018 01:59:28 Oct 12 09:59 pm Oct 12 6:59 pm
running 10/13/2018 00:59:44 Oct 12 08:59 pm Oct 12 5:59 pm
running 10/13/2018 00:00:00 Oct 12 08:00 pm Oct 12 5:00 pm
running 10/12/2018 22:58:08 Oct 12 06:58 pm Oct 12 3:58 pm
running 10/12/2018 21:58:24 Oct 12 05:58 pm Oct 12 2:58 pm
running 10/12/2018 20:58:40 Oct 12 04:58 pm Oct 12 1:58 pm
running 10/12/2018 18:59:12 Oct 12 02:59 pm Oct 12 11:59 am
running 10/12/2018 17:59:28 Oct 12 01:59 pm Oct 12 10:59 am
running 10/12/2018 16:59:44 Oct 12 12:59 pm Oct 12 9:59 am
running 10/12/2018 14:58:08 Oct 12 10:58 am Oct 12 7:58 am
running 10/12/2018 12:58:40 Oct 12 08:58 am Oct 12 5:58 am
running 10/12/2018 11:58:56 Oct 12 07:58 am Oct 12 4:58 am
running 10/12/2018 09:59:28 Oct 12 05:59 am Oct 12 2:59 am
running 10/12/2018 08:00:00 Oct 12 04:00 am Oct 12 1:00 am
running 10/12/2018 06:58:08 Oct 12 02:58 am Oct 11 11:58 pm
running 10/12/2018 02:59:12 Oct 11 10:59 pm Oct 11 7:59 pm
running 10/12/2018 01:59:28 Oct 11 09:59 pm Oct 11 6:59 pm
running 10/12/2018 00:00:00 Oct 11 08:00 pm Oct 11 5:00 pm
running 10/11/2018 22:58:08 Oct 11 06:58 pm Oct 11 3:58 pm
running 10/11/2018 21:58:24 Oct 11 05:58 pm Oct 11 2:58 pm
running 10/11/2018 20:58:40 Oct 11 04:58 pm Oct 11 1:58 pm
running 10/11/2018 19:58:56 Oct 11 03:58 pm Oct 11 12:58 pm
running 10/11/2018 18:59:12 Oct 11 02:59 pm Oct 11 11:59 am
running 10/11/2018 17:59:28 Oct 11 01:59 pm Oct 11 10:59 am
running 10/11/2018 16:59:44 Oct 11 12:59 pm Oct 11 9:59 am
running 10/11/2018 16:00:00 Oct 11 12:00 pm Oct 11 9:00 am
running 10/11/2018 14:58:08 Oct 11 10:58 am Oct 11 7:58 am
running 10/11/2018 13:58:24 Oct 11 09:58 am Oct 11 6:58 am
running 10/11/2018 12:58:40 Oct 11 08:58 am Oct 11 5:58 am
too low 10/11/2018 01:59:28 Oct 10 09:59 pm Oct 10 6:59 pm
too low 10/11/2018 00:59:44 Oct 10 08:59 pm Oct 10 5:59 pm
too low 10/11/2018 00:00:00 Oct 10 08:00 pm Oct 10 5:00 pm
too low 10/10/2018 21:58:24 Oct 10 05:58 pm Oct 10 2:58 pm
too low 10/10/2018 20:58:40 Oct 10 04:58 pm Oct 10 1:58 pm
too low 10/10/2018 19:58:56 Oct 10 03:58 pm Oct 10 12:58 pm
too low 10/10/2018 17:59:28 Oct 10 01:59 pm Oct 10 10:59 am
too low 10/10/2018 16:59:44 Oct 10 12:59 pm Oct 10 9:59 am
too low 10/10/2018 16:00:00 Oct 10 12:00 pm Oct 10 9:00 am
too low 10/10/2018 14:58:08 Oct 10 10:58 am Oct 10 7:58 am
too low 10/10/2018 13:58:24 Oct 10 09:58 am Oct 10 6:58 am
too low 10/10/2018 12:58:40 Oct 10 08:58 am Oct 10 5:58 am
too low 10/10/2018 11:58:56 Oct 10 07:58 am Oct 10 4:58 am
too low 10/10/2018 10:59:12 Oct 10 06:59 am Oct 10 3:59 am
too low 10/10/2018 09:59:28 Oct 10 05:59 am Oct 10 2:59 am
too low 10/10/2018 08:59:44 Oct 10 04:59 am Oct 10 1:59 am
too low 10/10/2018 08:00:00 Oct 10 04:00 am Oct 10 1:00 am
too low 10/10/2018 06:58:08 Oct 10 02:58 am Oct 9 11:58 pm
too low 10/10/2018 01:59:28 Oct 9 09:59 pm Oct 9 6:59 pm
too low 10/10/2018 00:59:44 Oct 9 08:59 pm Oct 9 5:59 pm
too low 10/10/2018 00:00:00 Oct 9 08:00 pm Oct 9 5:00 pm
too low 10/09/2018 22:58:08 Oct 9 06:58 pm Oct 9 3:58 pm
too low 10/09/2018 21:58:24 Oct 9 05:58 pm Oct 9 2:58 pm
too low 10/09/2018 20:58:40 Oct 9 04:58 pm Oct 9 1:58 pm
too low 10/09/2018 19:58:56 Oct 9 03:58 pm Oct 9 12:58 pm
too low 10/09/2018 18:59:12 Oct 9 02:59 pm Oct 9 11:59 am
too low 10/09/2018 17:59:28 Oct 9 01:59 pm Oct 9 10:59 am
too low 10/09/2018 16:59:44 Oct 9 12:59 pm Oct 9 9:59 am
too low 10/09/2018 16:00:00 Oct 9 12:00 pm Oct 9 9:00 am
too low 10/09/2018 14:58:08 Oct 9 10:58 am Oct 9 7:58 am
too low 10/09/2018 13:58:24 Oct 9 09:58 am Oct 9 6:58 am
too low 10/09/2018 12:58:40 Oct 9 08:58 am Oct 9 5:58 am
too low 10/09/2018 11:58:56 Oct 9 07:58 am Oct 9 4:58 am
too low 10/09/2018 10:59:12 Oct 9 06:59 am Oct 9 3:59 am
too low 10/09/2018 09:59:28 Oct 9 05:59 am Oct 9 2:59 am
too low 10/09/2018 08:59:44 Oct 9 04:59 am Oct 9 1:59 am
too low 10/09/2018 08:00:00 Oct 9 04:00 am Oct 9 1:00 am
too low 10/09/2018 06:58:08 Oct 9 02:58 am Oct 8 11:58 pm
too low 10/09/2018 02:59:12 Oct 8 10:59 pm Oct 8 7:59 pm
too low 10/09/2018 01:59:28 Oct 8 09:59 pm Oct 8 6:59 pm
too low 10/09/2018 00:59:44 Oct 8 08:59 pm Oct 8 5:59 pm
too low 10/09/2018 00:00:00 Oct 8 08:00 pm Oct 8 5:00 pm
too low 10/08/2018 22:58:08 Oct 8 06:58 pm Oct 8 3:58 pm
too low 10/08/2018 21:58:24 Oct 8 05:58 pm Oct 8 2:58 pm
too low 10/08/2018 20:58:40 Oct 8 04:58 pm Oct 8 1:58 pm
too low 10/08/2018 19:58:56 Oct 8 03:58 pm Oct 8 12:58 pm
too low 10/08/2018 18:59:12 Oct 8 02:59 pm Oct 8 11:59 am
too low 10/08/2018 17:59:28 Oct 8 01:59 pm Oct 8 10:59 am
too low 10/08/2018 16:00:00 Oct 8 12:00 pm Oct 8 9:00 am
too low 10/08/2018 13:58:24 Oct 8 09:58 am Oct 8 6:58 am
too low 10/08/2018 12:58:40 Oct 8 08:58 am Oct 8 5:58 am
too low 10/08/2018 11:58:56 Oct 8 07:58 am Oct 8 4:58 am
too low 10/08/2018 09:59:28 Oct 8 05:59 am Oct 8 2:59 am
too low 10/08/2018 08:59:44 Oct 8 04:59 am Oct 8 1:59 am
too low 10/08/2018 08:00:00 Oct 8 04:00 am Oct 8 1:00 am
too low 10/08/2018 06:58:08 Oct 8 02:58 am Oct 7 11:58 pm
too low 10/08/2018 02:59:12 Oct 7 10:59 pm Oct 7 7:59 pm
too low 10/08/2018 01:59:28 Oct 7 09:59 pm Oct 7 6:59 pm
too low 10/08/2018 00:59:44 Oct 7 08:59 pm Oct 7 5:59 pm
too low 10/08/2018 00:00:00 Oct 7 08:00 pm Oct 7 5:00 pm
too low 10/07/2018 22:58:08 Oct 7 06:58 pm Oct 7 3:58 pm
too low 10/07/2018 21:58:24 Oct 7 05:58 pm Oct 7 2:58 pm
too low 10/07/2018 20:58:40 Oct 7 04:58 pm Oct 7 1:58 pm
too low 10/07/2018 19:58:56 Oct 7 03:58 pm Oct 7 12:58 pm
too low 10/07/2018 18:59:12 Oct 7 02:59 pm Oct 7 11:59 am
too low 10/07/2018 17:59:28 Oct 7 01:59 pm Oct 7 10:59 am
too low 10/07/2018 16:59:44 Oct 7 12:59 pm Oct 7 9:59 am
too low 10/07/2018 16:00:00 Oct 7 12:00 pm Oct 7 9:00 am
too low 10/07/2018 14:58:08 Oct 7 10:58 am Oct 7 7:58 am
too low 10/07/2018 13:58:24 Oct 7 09:58 am Oct 7 6:58 am
too low 10/07/2018 12:58:40 Oct 7 08:58 am Oct 7 5:58 am
too low 10/07/2018 11:58:56 Oct 7 07:58 am Oct 7 4:58 am
too low 10/07/2018 10:59:12 Oct 7 06:59 am Oct 7 3:59 am
too low 10/07/2018 09:59:28 Oct 7 05:59 am Oct 7 2:59 am
too low 10/07/2018 08:00:00 Oct 7 04:00 am Oct 7 1:00 am
too low 10/07/2018 06:58:08 Oct 7 02:58 am Oct 6 11:58 pm
too low 10/07/2018 02:59:12 Oct 6 10:59 pm Oct 6 7:59 pm
too low 10/07/2018 01:59:28 Oct 6 09:59 pm Oct 6 6:59 pm
too low 10/07/2018 00:59:44 Oct 6 08:59 pm Oct 6 5:59 pm
too low 10/07/2018 00:00:00 Oct 6 08:00 pm Oct 6 5:00 pm
too low 10/06/2018 22:58:08 Oct 6 06:58 pm Oct 6 3:58 pm
too low 10/06/2018 21:58:24 Oct 6 05:58 pm Oct 6 2:58 pm
too low 10/06/2018 20:58:40 Oct 6 04:58 pm Oct 6 1:58 pm
too low 10/06/2018 19:58:56 Oct 6 03:58 pm Oct 6 12:58 pm
too low 10/06/2018 18:59:12 Oct 6 02:59 pm Oct 6 11:59 am
too low 10/06/2018 17:59:28 Oct 6 01:59 pm Oct 6 10:59 am
too low 10/06/2018 16:59:44 Oct 6 12:59 pm Oct 6 9:59 am
too low 10/06/2018 16:00:00 Oct 6 12:00 pm Oct 6 9:00 am
too low 10/06/2018 14:58:08 Oct 6 10:58 am Oct 6 7:58 am
too low 10/06/2018 13:58:24 Oct 6 09:58 am Oct 6 6:58 am
too low 10/06/2018 12:58:40 Oct 6 08:58 am Oct 6 5:58 am
too low 10/06/2018 11:58:56 Oct 6 07:58 am Oct 6 4:58 am
too low 10/06/2018 10:59:12 Oct 6 06:59 am Oct 6 3:59 am
too low 10/06/2018 09:59:28 Oct 6 05:59 am Oct 6 2:59 am
too low 10/06/2018 08:59:44 Oct 6 04:59 am Oct 6 1:59 am
too low 10/06/2018 08:00:00 Oct 6 04:00 am Oct 6 1:00 am
too low 10/06/2018 06:58:08 Oct 6 02:58 am Oct 5 11:58 pm
too low 10/06/2018 02:59:12 Oct 5 10:59 pm Oct 5 7:59 pm
too low 10/06/2018 00:00:00 Oct 5 08:00 pm Oct 5 5:00 pm
too low 10/05/2018 22:58:08 Oct 5 06:58 pm Oct 5 3:58 pm
too low 10/05/2018 21:58:24 Oct 5 05:58 pm Oct 5 2:58 pm
too low 10/05/2018 20:58:40 Oct 5 04:58 pm Oct 5 1:58 pm
too low 10/05/2018 19:58:56 Oct 5 03:58 pm Oct 5 12:58 pm
too low 10/05/2018 18:59:12 Oct 5 02:59 pm Oct 5 11:59 am
too low 10/05/2018 17:59:28 Oct 5 01:59 pm Oct 5 10:59 am
too low 10/05/2018 16:59:44 Oct 5 12:59 pm Oct 5 9:59 am
too low 10/05/2018 16:00:00 Oct 5 12:00 pm Oct 5 9:00 am
too low 10/05/2018 14:58:08 Oct 5 10:58 am Oct 5 7:58 am
too low 10/05/2018 13:58:24 Oct 5 09:58 am Oct 5 6:58 am
too low 10/05/2018 12:58:40 Oct 5 08:58 am Oct 5 5:58 am
too low 10/05/2018 11:58:56 Oct 5 07:58 am Oct 5 4:58 am
too low 10/05/2018 10:59:12 Oct 5 06:59 am Oct 5 3:59 am
too low 10/05/2018 09:59:28 Oct 5 05:59 am Oct 5 2:59 am
too low 10/05/2018 08:59:44 Oct 5 04:59 am Oct 5 1:59 am
too low 10/05/2018 08:00:00 Oct 5 04:00 am Oct 5 1:00 am
too low 10/05/2018 06:58:08 Oct 5 02:58 am Oct 4 11:58 pm
too low 10/05/2018 02:59:12 Oct 4 10:59 pm Oct 4 7:59 pm
too low 10/05/2018 01:59:28 Oct 4 09:59 pm Oct 4 6:59 pm
too low 10/05/2018 00:59:44 Oct 4 08:59 pm Oct 4 5:59 pm
too low 10/05/2018 00:00:00 Oct 4 08:00 pm Oct 4 5:00 pm
too low 10/04/2018 22:58:08 Oct 4 06:58 pm Oct 4 3:58 pm
too low 10/04/2018 21:58:24 Oct 4 05:58 pm Oct 4 2:58 pm
too low 10/04/2018 20:58:40 Oct 4 04:58 pm Oct 4 1:58 pm
too low 10/04/2018 19:58:56 Oct 4 03:58 pm Oct 4 12:58 pm
too low 10/04/2018 18:59:12 Oct 4 02:59 pm Oct 4 11:59 am
too low 10/04/2018 17:59:28 Oct 4 01:59 pm Oct 4 10:59 am
too low 10/04/2018 16:59:44 Oct 4 12:59 pm Oct 4 9:59 am
too low 10/04/2018 16:00:00 Oct 4 12:00 pm Oct 4 9:00 am
too low 10/04/2018 14:58:08 Oct 4 10:58 am Oct 4 7:58 am
too low 10/04/2018 13:58:24 Oct 4 09:58 am Oct 4 6:58 am
too low 10/03/2018 19:58:56 Oct 3 03:58 pm Oct 3 12:58 pm
too low 10/03/2018 18:59:12 Oct 3 02:59 pm Oct 3 11:59 am
too low 10/03/2018 17:59:28 Oct 3 01:59 pm Oct 3 10:59 am
too low 10/03/2018 16:59:44 Oct 3 12:59 pm Oct 3 9:59 am
too low 10/03/2018 16:00:00 Oct 3 12:00 pm Oct 3 9:00 am
too low 10/02/2018 19:58:56 Oct 2 03:58 pm Oct 2 12:58 pm
too low 10/02/2018 18:59:12 Oct 2 02:59 pm Oct 2 11:59 am
too low 10/02/2018 17:59:28 Oct 2 01:59 pm Oct 2 10:59 am
too low 10/02/2018 16:59:44 Oct 2 12:59 pm Oct 2 9:59 am
too low 10/02/2018 16:00:00 Oct 2 12:00 pm Oct 2 9:00 am
too low 10/02/2018 14:58:08 Oct 2 10:58 am Oct 2 7:58 am
too low 10/02/2018 13:58:24 Oct 2 09:58 am Oct 2 6:58 am
too low 10/02/2018 12:58:40 Oct 2 08:58 am Oct 2 5:58 am
too low 10/02/2018 11:58:56 Oct 2 07:58 am Oct 2 4:58 am
too low 10/02/2018 10:59:12 Oct 2 06:59 am Oct 2 3:59 am
too low 10/02/2018 09:59:28 Oct 2 05:59 am Oct 2 2:59 am
too low 10/02/2018 08:59:44 Oct 2 04:59 am Oct 2 1:59 am
too low 10/02/2018 08:00:00 Oct 2 04:00 am Oct 2 1:00 am
too low 10/02/2018 06:58:08 Oct 2 02:58 am Oct 1 11:58 pm
too low 10/02/2018 02:59:12 Oct 1 10:59 pm Oct 1 7:59 pm
too low 10/02/2018 01:59:28 Oct 1 09:59 pm Oct 1 6:59 pm
too low 10/02/2018 00:59:44 Oct 1 08:59 pm Oct 1 5:59 pm

Report - Reports of Related Gauges

Reports give the public a chance to report on river conditions throughout the country as well as log the history of a river.

Reports

No Reports Filed

Linked Reaches

Click a heading to sort. Hover over a heading for help.
River Name/Section Class Level running? Updated
Pit [CA] 6) Pit 5: Pit 5 Dam to Pit 5 Powerhouse III+(V) 418 cfs
0 cfs/hr
L8-
Below Recom.
02h59m